Wind_Speed
4 5 5 5 5 5 5 5 6 7 7 7 7 8 8 8 8 8 9 10 10 10 9 9 9 8 8 8 8 7 7 7 7 6 6 6 6 6 5 4 4 4 4
4 5 5 6 6 5 5 5 5 6 7 7 7 8 8 9 8 9 9 10 10 9 8 8 8 8 8 8 7 7 7 7 7 7 6 5 6 5 5 4 4 5 4
4 5 6 5 6 6 5 5 5 6 7 8 8 8 9 8 8 8 9 10 9 8 8 8 7 8 8 7 8 8 8 8 7 6 6 5 5 5 5 4 4 4 3
4 5 5 5 6 6 6 6 6 7 7 8 9 8 9 8 8 8 9 10 9 7 6 6 7 8 8 8 8 8 7 7 6 6 5 4 4 4 4 4 3 3 2
5 5 6 6 6 7 7 7 7 7 7 8 8 9 8 9 8 9 10 10 8 7 7 7 7 8 9 8 8 7 6 6 5 5 4 4 4 3 3 3 2 2 2
8 8 8 8 9 9 8 8 8 7 7 8 8 8 7 7 8 10 10 9 8 8 8 7 8 9 9 8 7 7 6 5 5 4 4 3 3 3 3 2 2 2 1
10 10 10 9 9 10 9 9 9 8 8 8 8 8 8 8 9 9 9 9 8 9 8 8 8 9 8 7 7 7 6 5 4 3 3 2 2 2 1 1 1 1 1
11 11 10 10 9 10 10 9 8 9 8 7 7 7 7 8 8 8 7 8 7 7 8 7 7 7 6 6 5 5 5 4 3 2 2 1 1 1 1 1 1 1 2
11 11 11 10 10 10 10 9 9 8 8 7 6 6 7 8 8 8 7 7 6 6 7 7 7 6 6 5 4 4 4 3 2 2 2 1 1 2 1 1 2 2 2
11 11 11 10 10 9 9 9 9 9 8 8 7 7 7 7 7 7 7 6 5 5 5 5 5 5 4 3 3 3 3 2 1 1 1 1 2 2 2 2 3 3 3
10 10 10 9 9 9 9 9 9 9 8 8 8 7 7 7 7 7 7 6 5 5 4 3 3 3 3 3 2 2 2 1 1 1 1 2 2 2 3 4 4 5 4
10 10 10 9 9 9 9 8 8 8 8 8 7 7 7 7 7 7 6 5 4 4 4 3 2 2 2 2 1 1 1 1 2 2 2 3 4 4 5 5 6 6 5
9 9 9 9 9 9 8 8 8 8 8 7 7 8 7 7 7 7 6 5 5 4 4 3 3 2 1 1 1 1 2 2 2 3 4 4 5 5 5 5 6 6 6
9 9 8 9 9 9 8 8 8 7 7 8 7 7 8 8 7 6 5 4 4 3 3 4 3 3 2 1 1 1 2 3 3 3 4 4 5 5 5 6 6 7 7
9 9 8 8 8 8 8 8 8 7 7 7 7 7 7 6 6 4 3 3 3 3 3 3 2 2 2 2 2 2 2 3 3 4 5 5 5 5 6 7 8 8 8
9 8 8 8 7 7 7 7 7 7 7 7 7 6 6 5 4 4 4 4 4 4 3 3 3 3 3 3 3 2 3 3 4 4 6 6 6 6 7 7 8 8 9
9 8 7 7 7 7 6 7 7 7 6 6 6 6 6 5 5 4 4 4 4 4 4 3 3 3 3 3 3 3 4 4 5 6 6 6 7 7 8 8 8 8 9
9 8 7 7 7 7 6 6 6 7 6 6 5 5 5 5 4 4 4 4 4 4 4 4 4 4 4 3 4 4 5 6 6 7 7 8 8 8 8 9 9 9 10
10 9 8 7 7 6 6 5 5 6 6 5 5 5 4 4 4 4 4 4 4 4 4 4 4 5 4 4 5 5 6 7 7 8 8 8 8 9 9 9 10 10 10
10 9 8 7 7 7 6 5 5 5 5 6 6 5 5 5 5 5 5 5 5 5 5 5 5 5 5 5 6 7 7 8 8 8 9 9 8 9 9 10 11 10 10
9 8 8 8 7 7 6 5 5 6 6 6 6 6 6 6 6 6 5 5 6 5 5 5 5 5 6 6 7 7 7 8 8 9 9 9 9 9 9 10 11 11 11
9 9 8 8 7 6 6 6 6 6 5 5 6 6 6 7 7 6 6 6 7 7 7 6 6 6 7 7 7 8 8 9 9 9 9 10 10 10 11 11 12 11 11
8 8 8 8 8 7 6 6 6 6 6 6 6 6 6 7 7 7 6 6 7 7 7 7 7 7 7 8 8 8 9 9 10 10 10 11 11 12 12 12 11 11 11
7 7 8 8 8 7 7 7 6 6 6 6 6 6 6 6 6 6 6 7 7 7 8 8 7 7 8 9 9 9 10 11 12 12 12 12 12 12 12 12 12 12 12
7 7 7 7 7 7 7 7 7 6 6 6 6 6 6 5 6 6 6 7 7 8 8 9 8 8 8 9 10 11 12 12 13 12 12 12 12 12 12 12 12 13 13
7 7 7 7 7 6 6 7 7 6 6 6 6 6 6 6 6 6 7 7 7 8 8 9 10 10 10 11 11 12 13 13 14 14 13 13 13 13 13 13 13 14 14
Wind_Direction
72 84 94 106 112 126 134 133 135 135 130 135 138 138 139 142 140 139 143 141 139 139 137 141 145 142 139 135 134 131 131 128 130 129 127 126 115 105 102 103 94 86 88
75 85 94 111 113 120 133 135 137 137 134 132 129 134 138 138 135 139 139 140 139 137 136 143 145 141 139 138 139 135 133 129 130 131 128 129 118 107 102 95 94 91 85
74 82 99 112 115 121 125 124 130 126 134 134 127 130 132 135 139 137 136 137 138 139 138 141 139 140 138 141 143 139 135 135 134 134 131 129 121 112 106 100 92 81 78
80 83 84 101 117 118 117 118 124 131 128 128 128 131 132 136 139 134 133 131 129 131 133 134 136 144 143 142 141 139 137 138 139 136 130 136 127 115 106 103 91 78 72
81 87 86 93 108 113 113 120 132 133 130 130 131 125 125 128 129 129 126 124 119 117 115 120 130 142 143 139 142 139 136 143 143 142 136 135 138 124 108 98 87 66 66
78 81 84 90 97 107 112 120 124 124 124 125 124 122 124 127 127 125 123 123 120 120 121 121 127 134 136 135 141 140 141 145 146 151 143 133 133 124 109 102 88 56 44
77 83 87 90 91 92 100 107 113 116 118 116 117 119 122 126 126 125 120 123 125 119 120 120 126 128 134 139 142 143 143 144 145 147 149 152 161 153 134 123 98 44 2
79 84 84 86 86 88 89 92 99 107 108 111 114 122 126 130 130 129 123 121 125 120 119 121 126 126 133 140 141 147 150 145 154 158 171 180 204 180 207 199 259 307 323
79 83 83 84 85 87 88 89 91 98 102 108 113 121 126 128 128 130 126 122 124 121 119 124 125 126 131 136 147 154 154 154 163 170 185 204 234 226 229 244 282 282 290
77 81 84 84 84 84 83 86 89 94 95 99 103 107 115 119 120 124 125 123 126 126 123 123 121 128 129 135 152 164 170 170 175 185 183 230 258 258 264 272 268 273 283
76 78 82 83 84 84 83 83 86 89 85 90 91 98 107 115 119 115 120 122 130 131 128 125 120 125 132 137 140 144 174 195 238 240 254 258 272 280 274 268 271 278 283
71 75 79 82 83 82 84 86 87 86 87 86 87 95 105 116 123 116 111 118 127 131 125 120 132 139 146 157 172 182 218 250 269 270 282 280 281 281 280 274 273 275 275
69 73 79 81 81 79 80 82 85 84 85 86 87 93 101 109 116 114 110 110 111 113 111 99 92 100 133 208 227 236 263 277 297 283 286 292 294 288 290 286 280 279 277
70 73 78 79 80 79 75 75 81 85 85 86 87 93 100 102 105 103 98 93 102 103 93 85 70 56 47 9 330 298 298 306 311 318 312 305 298 293 295 289 288 285 283
63 67 70 77 81 79 81 80 81 81 78 80 87 92 91 96 97 89 90 81 85 77 70 69 64 32 11 355 352 319 291 283 299 310 311 310 296 298 298 294 290 286 282
63 63 64 71 72 73 77 81 83 81 83 86 89 92 91 87 88 82 74 68 66 69 65 56 37 20 12 4 357 335 302 301 314 316 317 318 312 307 298 295 299 291 283
60 65 68 68 67 69 71 72 74 73 78 80 81 82 82 79 74 66 63 54 49 53 54 50 32 16 13 6 359 354 346 332 326 313 316 320 315 310 305 301 299 294 290
57 63 65 66 66 69 68 67 70 68 69 72 71 69 64 63 59 52 45 40 39 39 40 32 21 7 360 352 344 338 337 333 325 323 319 316 315 313 312 308 302 299 296
53 55 57 57 62 63 62 68 68 62 58 63 65 63 54 48 46 45 40 35 26 27 23 15 11 8 2 352 348 345 338 329 328 327 326 322 319 317 311 307 305 301 297
49 50 51 54 62 60 55 58 59 51 51 60 57 57 52 45 47 50 40 31 25 19 12 8 2 0 358 349 341 338 337 331 328 327 327 324 324 318 313 305 302 301 301
45 48 47 49 53 56 54 52 48 45 54 55 54 50 52 54 51 47 40 34 26 19 12 6 1 1 351 345 341 336 332 329 328 326 323 320 319 316 313 311 307 301 303
41 42 42 42 47 51 49 45 48 47 50 54 56 55 56 55 54 51 46 39 31 26 19 14 8 1 351 345 341 341 335 332 330 327 324 322 319 314 311 309 308 304 305
37 37 37 41 42 43 43 44 45 46 51 51 50 52 54 52 48 44 38 31 27 22 14 5 1 357 353 349 344 340 334 332 332 329 325 325 322 318 315 311 310 309 308
29 29 32 35 38 42 43 42 40 40 43 45 46 49 49 45 38 30 24 20 17 13 9 3 356 354 350 346 344 341 335 334 333 333 331 327 323 319 317 316 317 313 306
25 25 27 30 34 37 36 36 38 36 36 35 36 41 43 38 30 20 13 10 8 3 1 1 358 354 351 345 341 340 339 337 336 336 335 332 329 326 323 319 317 315 312
21 22 23 23 27 28 27 29 30 30 30 29 29 29 27 26 18 9 4 1 358 355 354 356 355 351 349 345 341 339 337 336 336 336 333 331 328 326 323 319 315 313 311
Height
5855 5853 5852 5853 5854 5855 5855 5856 5856 5856 5857 5858 5858 5860 5861 5862 5863 5863 5864 5866 5867 5868 5869 5871 5872 5873 5874 5875 5877 5878 5879 5880 5881 5882 5883 5884 5885 5885 5886 5887 5887 5887 5888
5856 5855 5855 5855 5856 5856 5857 5857 5857 5858 5858 5859 5860 5861 5862 5863 5864 5864 5865 5866 5868 5869 5871 5872 5872 5874 5875 5876 5878 5879 5880 5881 5882 5883 5884 5884 5885 5886 5887 5887 5888 5888 5888
5857 5856 5856 5857 5857 5858 5858 5859 5859 5859 5859 5860 5862 5863 5863 5864 5865 5865 5866 5867 5869 5871 5871 5872 5873 5874 5876 5877 5878 5879 5881 5882 5883 5884 5885 5885 5886 5887 5887 5888 5889 5889 5889
5859 5858 5858 5858 5858 5859 5860 5860 5860 5861 5862 5863 5864 5864 5865 5866 5866 5867 5868 5869 5871 5872 5872 5872 5872 5874 5876 5878 5879 5880 5882 5883 5884 5884 5885 5886 5887 5887 5888 5888 5889 5889 5889
5860 5860 5859 5859 5859 5860 5861 5862 5863 5863 5864 5864 5865 5866 5867 5867 5867 5868 5869 5870 5872 5872 5872 5872 5872 5874 5876 5878 5880 5881 5883 5884 5885 5885 5886 5887 5887 5888 5888 5889 5889 5890 5890
5862 5861 5861 5862 5861 5862 5863 5863 5864 5865 5865 5866 5866 5867 5868 5868 5869 5870 5871 5872 5873 5873 5874 5873 5873 5874 5877 5879 5881 5882 5883 5885 5886 5887 5887 5887 5888 5888 5889 5889 5889 5890 5890
5864 5864 5864 5864 5864 5864 5865 5865 5866 5866 5867 5867 5867 5868 5868 5869 5870 5871 5872 5873 5874 5875 5875 5876 5876 5877 5879 5880 5882 5883 5884 5885 5886 5887 5887 5888 5888 5889 5889 5889 5890 5890 5890
5866 5866 5867 5867 5867 5867 5867 5867 5867 5868 5868 5868 5868 5869 5869 5870 5872 5873 5874 5875 5876 5877 5877 5878 5878 5879 5880 5882 5882 5883 5885 5885 5886 5887 5888 5888 5888 5889 5889 5889 5890 5890 5890
5869 5869 5869 5869 5869 5869 5870 5869 5870 5870 5869 5869 5869 5869 5870 5871 5873 5874 5875 5876 5877 5878 5879 5879 5880 5881 5882 5883 5883 5884 5885 5886 5886 5887 5887 5888 5888 5889 5889 5889 5889 5890 5890
5872 5872 5872 5872 5872 5872 5872 5872 5872 5872 5871 5870 5870 5870 5871 5872 5874 5875 5876 5877 5878 5879 5880 5881 5881 5882 5883 5883 5884 5885 5886 5886 5886 5887 5887 5888 5888 5888 5888 5889 5889 5889 5889
5874 5874 5874 5874 5874 5874 5874 5874 5874 5874 5874 5873 5872 5872 5873 5874 5875 5877 5878 5879 5880 5881 5881 5882 5882 5883 5884 5884 5885 5885 5886 5886 5886 5887 5887 5888 5888 5888 5888 5888 5888 5888 5888
5877 5877 5877 5877 5877 5877 5877 5876 5876 5876 5876 5875 5875 5874 5874 5875 5877 5878 5879 5880 5881 5882 5883 5883 5883 5884 5884 5885 5885 5886 5886 5886 5887 5887 5887 5887 5888 5888 5888 5888 5887 5887 5888
5879 5879 5879 5879 5879 5879 5879 5879 5879 5879 5878 5878 5878 5877 5877 5877 5879 5880 5881 5882 5883 5883 5884 5884 5884 5885 5885 5885 5885 5886 5886 5886 5886 5887 5887 5887 5887 5887 5887 5887 5887 5887 5887
5882 5882 5882 5882 5882 5881 5881 5881 5881 5881 5880 5880 5880 5880 5880 5880 5881 5882 5883 5883 5884 5885 5885 5885 5885 5885 5886 5886 5886 5886 5886 5886 5886 5887 5887 5887 5887 5886 5886 5886 5886 5886 5886
5884 5884 5884 5884 5884 5884 5884 5883 5883 5883 5883 5882 5882 5883 5883 5883 5884 5884 5884 5885 5885 5886 5886 5886 5886 5886 5886 5886 5886 5886 5886 5886 5886 5886 5886 5886 5886 5886 5885 5885 5885 5885 5884
5887 5886 5887 5887 5886 5886 5886 5886 5885 5885 5885 5885 5884 5885 5885 5886 5886 5886 5886 5886 5886 5886 5886 5887 5887 5887 5886 5886 5886 5886 5886 5886 5886 5886 5886 5886 5885 5885 5884 5884 5884 5883 5883
5889 5888 5889 5889 5888 5888 5888 5888 5887 5887 5887 5887 5886 5886 5887 5887 5887 5887 5887 5887 5887 5887 5887 5887 5887 5887 5887 5886 5886 5886 5886 5885 5886 5885 5885 5885 5884 5883 5883 5882 5882 5881 5881
5891 5890 5890 5890 5890 5890 5889 5889 5889 5889 5889 5888 5888 5888 5888 5888 5888 5888 5888 5888 5888 5888 5887 5887 5887 5887 5887 5887 5887 5886 5886 5885 5885 5884 5884 5884 5883 5882 5881 5881 5880 5879 5879
5893 5893 5893 5892 5892 5891 5891 5891 5891 5890 5890 5890 5889 5889 5889 5889 5889 5889 5889 5889 5888 5888 5888 5888 5887 5887 5887 5887 5887 5886 5886 5885 5884 5884 5883 5882 5881 5881 5880 5879 5878 5878 5877
5896 5895 5895 5894 5893 5893 5893 5892 5892 5892 5891 5891 5891 5891 5890 5890 5890 5890 5890 5889 5889 5889 5888 5888 5888 5888 5887 5887 5886 5886 5885 5885 5884 5883 5882 5881 5880 5879 5878 5877 5877 5876 5875
5898 5897 5897 5896 5895 5895 5894 5894 5893 5893 5893 5892 5892 5892 5892 5891 5891 5891 5891 5890 5890 5889 5889 5888 5888 5887 5887 5887 5886 5885 5884 5884 5883 5882 5881 5880 5879 5878 5877 5876 5875 5874 5873
5900 5899 5898 5897 5897 5896 5896 5895 5895 5894 5894 5894 5893 5893 5893 5893 5892 5892 5891 5891 5890 5890 5889 5888 5888 5887 5887 5886 5886 5885 5884 5883 5882 5880 5879 5879 5878 5876 5875 5874 5873 5872 5871
5901 5901 5900 5899 5899 5898 5897 5897 5896 5896 5895 5895 5895 5894 5894 5894 5893 5893 5893 5892 5891 5890 5889 5889 5888 5887 5886 5886 5885 5884 5883 5882 5880 5879 5878 5877 5875 5874 5873 5872 5870 5869 5868
5903 5902 5901 5901 5900 5899 5899 5898 5898 5897 5897 5896 5896 5895 5895 5895 5894 5894 5893 5893 5892 5891 5890 5889 5888 5887 5886 5885 5884 5883 5882 5881 5879 5878 5877 5875 5874 5872 5870 5869 5868 5866 5865
5904 5903 5902 5902 5901 5900 5900 5899 5899 5898 5898 5898 5897 5896 5896 5895 5895 5895 5894 5893 5892 5891 5890 5889 5888 5887 5886 5885 5883 5882 5881 5879 5878 5877 5875 5874 5872 5870 5868 5867 5866 5864 5863
5905 5904 5903 5903 5902 5901 5901 5900 5900 5900 5899 5898 5898 5897 5897 5896 5896 5895 5894 5893 5892 5891 5890 5889 5888 5886 5885 5884 5883 5881 5880 5878 5877 5875 5873 5872 5870 5868 5866 5865 5863 5862 5860